カタログに戻る

CZ-2C R/B

運用中SSO
NORAD 45722·ROCKET BODY·🇨🇳 China

打ち上げ Jun 10, 2020 から Taiyuan Satellite Launch Center

Loading…

次のパス (今後24時間)

TLE

最新Source: Space-Track

元期: Sep 14, 2026, 12:58 UTC

1 45722U 20036B   26257.54036122  .00000185  00000-0  62457-4 0  9998
2 45722  98.7203 285.7918 0050698  29.5153 330.8884 14.47712095330655

AllMySatでCZ-2C R/Bをリアルタイム追跡

Download on the App Store